Skip Page Navigation
NASA JPL Caltech
NASA Logo - Jet Propulsion Laboratory + View the NASA Portal
+ Near-Earth Object (NEO) Program
Search JPL
JPL Home Earth Solar System Stars & Galaxies Technology
JPL Solar System Dynamics
BODIES ORBITS EPHEMERIDES TOOLS PHYSICAL DATA DISCOVERY FAQ SITE MAP
JPL Small-Body Database Browser
Search: [ help ]  
32 Pomona
Classification: Main-belt Asteroid          SPK-ID: 2000032
Ephemeris | Orbit Diagram | Orbital Elements | Physical Parameters | Discovery Circumstances | Close-Approach Data ]

[ hide orbit diagram ]
Orbit Diagram
Note: Make sure you have Java enabled on your browser to see the applet. This applet is provided as a 3D orbit visualization tool. The applet was implemented using 2-body methods, and hence should not be used for determining accurate long-term trajectories (over several years or decades) or planetary encounter circumstances. For accurate long-term ephemerides, please instead use our Horizons system.
Orbit Viewer

Additional Notes: the orbits shown in the applet are color coded. The planets are white lines, and the asteroid/comet is a blue line. The bright white line indicates the portion of the orbit that is above the ecliptic plane, and the darker portion is below the ecliptic plane. Likewise for the asteroid/comet orbit, the light blue indicates the portion above the ecliptic plane, and the dark blue the portion below the ecliptic plane.

Orbit Viewer applet originally written and kindly provided by Osamu Ajiki (AstroArts), and further modified by Ron Baalke (JPL).


Orbital Elements at Epoch 2456400.5 (2013-Apr-18.0) TDB
Reference: JPL 73 (heliocentric ecliptic J2000)
 Element Value Uncertainty (1-sigma)   Units 
e .08134064342367314 6.4175e-08  
a 2.588765778551736 6.6228e-09 AU
q 2.378193904451152 1.6605e-07 AU
i 5.527634539725996 7.1575e-06 deg
node 220.5393626202355 6.4259e-05 deg
peri 338.4229655784632 7.3109e-05 deg
M 232.2022444591094 3.4847e-05 deg
tp 2456940.580243847070
(2014-Oct-10.08024385)
0.00014766 JED
period 1521.379518459032
4.17
5.8382e-06
1.598e-08
d
yr
n .2366273475040831 9.0804e-10 deg/d
Q 2.799337652652321 7.1615e-09 AU
  Orbit Determination Parameters
   # obs. used (total)      1333  
   data-arc span      54476 days (149.15 yr)  
   first obs. used      1864-01-07  
   last obs. used      2013-03-02  
   planetary ephem.      DE405  
   SB-pert. ephem.      SB405-CPV-2  
   condition code      0  
   fit RMS      .66526  
   data source      ORB  
   producer      Otto Matic  
   solution date      2013-Mar-29 14:45:59  

Additional Information
 Earth MOID = 1.37641 AU 
 T_jup = 3.409 
[ show covariance matrix ]

Ephemeris | Orbit Diagram | Orbital Elements | Physical Parameters | Discovery Circumstances | Close-Approach Data ]

Physical Parameter Table
Parameter Symbol Value Units Sigma Reference Notes
absolute magnitude H 7.56 mag n/a IRAS-A-FPA-3-RDR-IMPS-V6.0 IRAS observations used: 25
diameter diameter 80.76 km 1.6 IRAS-A-FPA-3-RDR-IMPS-V6.0 IRAS observations used: 25
rotation period rot_per 9.448 h n/a Asteroid Lightcurve DataBase (Rev. 2013-May-01) Published Reference List:
[Schober, H.J. (1976) Astron. Astrophys. 53, 115-119.]
[Chang, Y.C.; Zhou, X.-h.; Yang, X.-y.; Zhang, Y.-y.; et al. (1981) Acta Astron. Sin. 22, 169-173; Chin. Astron. Astrophys. 5, 434-437.]
[Di Martino, M.; Zappala, V.; De Sanctis, G.; Cacciatori, S. (1987) Icarus 69, 338-353.]
[Erikson, A.; Magnusson, P. (1993) Icarus 103, 62-66.]
[Dotto, E.; De Angelis, G.; Di Martino, M.; Barucci, M.A.; et al. (1995) Icarus 117, 313-327.]
[Kaasalainen, M.; Torppa, J.; Piironen, J. (2002) Icarus 159, 369-395.]
geometric albedo albedo 0.2564   0.010 IRAS-A-FPA-3-RDR-IMPS-V6.0 IRAS observations used: 25
B-V BV .857 mag .017 EAR-A-5-DDR-UBV-MEAN-VALUES-V1.1 #obs=9; phase (min.=3.45, mean=13.75, max.=24.02) deg.
U-B UB .429 mag .025 EAR-A-5-DDR-UBV-MEAN-VALUES-V1.1 #obs=9; phase (min.=3.45, mean=13.75, max.=24.02) deg.
Tholen spectral type spec_T S   n/a EAR-A-5-DDR-TAXONOMY-V4.0 used 7 color indices
SMASSII spectral type spec_B S   n/a EAR-A-5-DDR-TAXONOMY-V4.0 based on a high-resolution spectrum by Xu et al. (1995) or Bus and Binzel (2002)

32 Pomona          Discovered 1854-Oct-26 by Goldschmidt, H. at Paris
Reference: DISCOVERY.DBLast Updated: 2003-08-29

[ show close-approach data ]
Alternate Designations
 1945 RB = 1949 SH = 1950 YD = A899 QA = A911 KF 
Ephemeris | Orbit Diagram | Orbital Elements | Physical Parameters | Discovery Circumstances | Close-Approach Data ]
ABOUT SSD CREDITS/AWARDS PRIVACY/COPYRIGHT GLOSSARY LINKS
FirstGov 2013-May-25 00:09 UT
(server date/time)  
NASA Home Page
Site Manager:   Donald K. Yeomans
Webmaster  Alan B. Chamberlin